Skip Page Navigation
NASA JPL Caltech
NASA Logo - Jet Propulsion Laboratory + View the NASA Portal
+ Near-Earth Object (NEO) Program
Search JPL
JPL Home Earth Solar System Stars & Galaxies Technology
JPL Solar System Dynamics
BODIES ORBITS EPHEMERIDES TOOLS PHYSICAL DATA DISCOVERY FAQ SITE MAP
JPL Small-Body Database Browser
Search: [ help ]  
6064 Holasovice (1987 HE1)
Classification: Main-belt Asteroid          SPK-ID: 2006064
Ephemeris | Orbit Diagram | Orbital Elements | Physical Parameters | Discovery Circumstances ]

[ show orbit diagram ]
Orbital Elements at Epoch 2456400.5 (2013-Apr-18.0) TDB
Reference: JPL 1 (heliocentric ecliptic J2000)
 Element Value Uncertainty (1-sigma)   Units 
e .1597953969023112 5.4497e-08  
a 2.207472178224316 1.1436e-08 AU
q 1.854728285354152 1.2349e-07 AU
i 5.366630922720976 6.5922e-06 deg
node 158.8298074220026 6.1547e-05 deg
peri 106.4540265308505 6.543e-05 deg
M 293.2008047011673 2.385e-05 deg
tp 2456622.784927203140
(2013-Nov-26.28492720)
7.9805e-05 JED
period 1197.957152554635
3.28
9.3093e-06
2.549e-08
d
yr
n .3005115827659635 2.3353e-09 deg/d
Q 2.56021607109448 1.3264e-08 AU
  Orbit Determination Parameters
   # obs. used (total)      1132  
   data-arc span      15230 days (41.70 yr)  
   first obs. used      1971-07-26  
   last obs. used      2013-04-06  
   planetary ephem.      DE405  
   SB-pert. ephem.      SB405-CPV-2  
   condition code      0  
   fit RMS      .55079  
   data source      ORB  
   producer      Otto Matic  
   solution date      2013-Apr-29 13:19:47  

Additional Information
 Earth MOID = .847925 AU 
 T_jup = 3.637 
[ show covariance matrix ]

Ephemeris | Orbit Diagram | Orbital Elements | Physical Parameters | Discovery Circumstances ]

Physical Parameter Table
Parameter Symbol Value Units Sigma Reference Notes
absolute magnitude H 13.7 mag n/a PDS3 (MPC 28114)  

6064 Holasovice           Discovered 1987 Apr. 23 by A. Mrkos at Klet.
Named for a village in southern Bohemia north of Klet Mountain. Holasovice is an exceptionally intact and well-preserved example of traditional Central European village architecture, containing a number of vernacular buildings from the eighteenth and nineteenth centuries in a style known as the South Bohemian Folk Baroque. Since 1998 Holasovice has been listed on the UNESCO World Heritage roster of cultural and natural sites. Name proposed by J. Ticha.
NOTE: some special characters may not display properly (any characters within {} are an attempt to place the proper accent above a character)
Reference: 19990402/MPCPages.arcLast Updated: 2010-06-11

Alternate Designations
 1987 HE1 = 1971 OW = 1990 DR 
Ephemeris | Orbit Diagram | Orbital Elements | Physical Parameters | Discovery Circumstances ]
ABOUT SSD CREDITS/AWARDS PRIVACY/COPYRIGHT GLOSSARY LINKS
FirstGov 2013-May-24 11:57 UT
(server date/time)  
NASA Home Page
Site Manager:   Donald K. Yeomans
Webmaster  Alan B. Chamberlin